Regional Weather Roundup
Issued by NWS

Home | Current Version | Previous Version | Graphics & Text | Print | Product List | Glossary On
Versions: 1 2 3 4 5 6 7 8 9 10 11 12 13 14 15 16 17 18 19 20 21 22 23 24 25 26 27 28 29 30 31 32 33 34 35 36 37 38 39 40 41 42 43 44 45 46 47 48 49 50
000
ASUS43 KIND 211659
RWRIN

WEATHER ROUNDUP FOR INDIANA
NATIONAL WEATHER SERVICE INDIANAPOLIS IN
100 PM EDT SAT APR 21 2018

NOTE: "FAIR" INDICATES FEW OR NO CLOUDS BELOW 12,000 FEET WITH NO
SIGNIFICANT WEATHER AND/OR OBSTRUCTIONS TO VISIBILITY.

* - STATION DOES NOT REPORT WEATHER SUCH AS PRECIPITATION OR FOG.

+ - STATION NOT QUALITY CONTROLLED BY THE NATIONAL WEATHER SERVICE.
    USE DATA WITH CAUTION...ESPECIALLY DEWPOINT AND RELATIVE
    HUMIDITY OBSERVATIONS.

INZ001>003-010>013-019-020-211800-
NORTHWEST INDIANA

CITY           SKY/WX    TMP DP  RH WIND       PRES   REMARKS
GARY /AIRPORT/ CLOUDY    46  34  61 NE5       30.45F
KNOX *+        CLOUDY    52  30  43 S5        30.45F
MONTICELLO +   CLOUDY    53  28  38 CALM      30.44F
RENSSELAER +   FAIR      52  19  28 E5        30.43F

$$

LMZ046-743>745-211800-
SOUTHERN LAKE MICHIGAN

STATION/POSITION TIME  TEMP    WIND        PRES    WAVE
                       AIR SEA DIR/SP/G            HT
                 (UTC) (F)     (DEG/KT/KT) (MB)    (FT)
BURNS HARBOR     1640   41      80/  6/  8 1031.5F
MICHIGAN CITY    1630   39      40/  6/  6   N/A

$$

INZ004-005-014>016-021>024-211800-
NORTH CENTRAL INDIANA

CITY           SKY/WX    TMP DP  RH WIND       PRES   REMARKS
ELKHART        SUNNY     55  27  33 S5        30.45S
GOSHEN         FAIR      55  27  34 S7        30.45S
PERU/GRISSOM   CLOUDY    52  27  37 SE7       30.43S
ROCHESTER +    FAIR      54  27  35 CALM      30.46S
SOUTH BEND     FAIR      52  29  41 W8        30.46F
WARSAW +       FAIR      52  28  40 SW5       30.45F

$$

INZ006>009-017-018-025>027-211800-
NORTHEAST INDIANA

CITY           SKY/WX    TMP DP  RH WIND       PRES   REMARKS
ANGOLA *+      FAIR      52  27  37 CALM      30.45S
FORT WAYNE     CLOUDY    54  24  31 SE7       30.46F
KENDALLVILLE + FAIR      53  19  25 S6        30.45F

$$

INZ028-029-035-036-043>045-051>053-211800-
WEST CENTRAL INDIANA

CITY           SKY/WX    TMP DP  RH WIND       PRES   REMARKS
GREENCASTLE +  FAIR      55  27  33 E6        30.40F
LAFAYETTE      FAIR      53  29  39 SE8       30.42F
TERRE HAUTE    FAIR      60  31  33 VRB7      30.38F

$$

INZ030>032-037>040-046>048-054>057-064-065-211800-
CENTRAL INDIANA

CITY           SKY/WX    TMP DP  RH WIND       PRES   REMARKS
ANDERSON       FAIR      57  21  24 E8        30.43F
INDIANAPOLIS   PTSUNNY   56  24  29 E10       30.41F
-EAGLE CREEK   FAIR      56  26  31 SE9       30.41F
KOKOMO +       FAIR      55  28  35 E9        30.44F
MT COMFORT *+  FAIR      54  30  40 E7        30.42F
SHELBYVILLE    FAIR      58  19  22 VRB5      30.40F
ZIONSVILLE +   FAIR      54  26  33 SE9       30.43F

$$

INZ033-034-041-042-049-050-058-059-211800-
EAST CENTRAL INDIANA

CITY           SKY/WX    TMP DP  RH WIND       PRES   REMARKS
MUNCIE         CLOUDY    56  20  24 E10       30.43F
RICHMOND +     FAIR      54  25  32 E6        30.43S

$$

INZ060-061-067>069-081>083-085>088-211800-
SOUTHWEST INDIANA

CITY           SKY/WX    TMP DP  RH WIND       PRES   REMARKS
EVANSVILLE     FAIR      64  31  28 NE6       30.34F
HUNTINGBURG +  FAIR      63  31  30 NE7       30.35F

$$

INZ062-063-066-070>080-084-089>092-211800-
SOUTH CENTRAL AND SOUTHEAST INDIANA

CITY           SKY/WX    TMP DP  RH WIND       PRES   REMARKS
BLOOMINGTON    FAIR      60  26  27 SE7       30.38F
FRENCH LICK *+ FAIR      61  12  15 E9        30.36F
SEYMOUR +      FAIR      61  32  33 SE7       30.39F

$$





USA.gov is the U.S. government's official web portal to all federal, state and local government web resources and services.